Tracking 29892 objects as of 21-Nov-2024
HD Live streaming from Space Station
objects crossing your sky now

CZ-6A DEB

Track CZ-6A DEB now!
10-day predictions


NORAD ID: 54555
Int'l Code: 2022-151LF
Perigee: 781.2 km
Apogee: 841.3 km
Inclination: 98.8 °
Period: 101.0 minutes
Semi major axis: 7182 km
RCS: Unknown
Launch date: November 11, 2022
Source: People's Republic of China (PRC)
Launch site: Taiyaun Space Center, China (TSC)

Note: This is SATELLITE DEBRIS
Your satellite tracking list
Your tracking list is empty




NASA's NSSDC Master Catalog

Two Line Element Set (TLE):
1 54555U 22151LF  24325.03735850  .00001186  00000-0  50827-3 0  9993
2 54555  98.7682 340.9602 0041875 222.7188 137.0734 14.26308651105024
Source of the keplerian elements: AFSPC